COSMOS 2197

Satellite information

Favourite Embed

Satellite Type and Status

PAYLOADIN ORBIT

Key statistics

Satellite COSMOS 2197 at a glance.

Uptime

12164

Days in orbit

Revolutions

≈ 12.6

Per day

Orbit

LEO

Low Earth Orbit

Inclination

82.6

Latest

Satellite identification and parameters

Extended collection of information and parameters for COSMOS 2197.

Object identification

Identified? True

Debris? False

Object name: COSMOS 2197

International designator: 1992-042A

Object number (NORAD): 22034

Object ID (CCSDS): 22034

Country: COMMONWEALTH OF INDEPENDENT STATES (CIS)

Current information (Y/N): Y

RCS size: LARGE

Orbital parameters

Period: 113.902 minutes

Inclination: 82.599 deg

SMA: 7783.62 km

Apoapsis: 1416.18 km

Periapsis: 1394.789 km

RAAN: 15.0043 deg

Eccentricy: 0.0013741

Argument of periapsis: 77.171 deg

Mean anomaly: 78.0148 deg

Mean motion: 12.64242338 rev/day

Mean motion (dot): 0.00000015 rev/day2

B* drag term: 0.000020414 1/REarth

Two-line elements (TLE)

Creation date: Oct. 31, 2025, 6:26 p.m.

Reference frame: TEME

Reference center: EARTH

Epoch: Oct. 31, 2025, 2:52 p.m. UTC

TLE line 0: 0 COSMOS 2197

TLE line 1: 1 22034U 92042A 25304.61978906 .00000015 00000-0 20414-4 0 9999

TLE line 2: 2 22034 82.5990 15.0043 0013741 77.1710 78.0148 12.64242338536409

Live tracking on map

Real-time ground track for satellite COSMOS 2197.

In-orbit conjunctions

There are no conjunctions computed for COSMOS 2197, at the moment. Check back to stay up to date, as we update our databases every day.

Go to all conjunctions

Associated space launch

Second generation store-dump military communications satellite

COSMOS 2197 was lifted into orbit during the mission ‘Tsiklon-3 | Strela-3 79 to 82’, on board a Tsiklon-3 space rocket.

The launch took place on July 13, 1992, 5:41 p.m. from 32/1.

For more information about the launch, click the button.

Launch to space Tsiklon-3 | Strela-3 79 to 82
Tsiklon-3 | Strela-3 79 to 82

Agency: N/A

Status: Launch Successful

Launch date: July 13, 1992, 5:41 p.m. UTC

Rocket: Tsiklon-3

Launch pad: 32/1

Location: Plesetsk Cosmodrome, Russian Federation

...

Latest news about this satellite

There are no fresh news available about this satellite. Check back as we update our databases every day.


Newsletter sign-up

Weekly statistics, charts and insights to help you stay on top of the space industry.